St. Joseph, KS

7:29 PM CST on November 22, 2019 (GMT -0600)
Rosecrans Memorial

Weather History for KSTJ - September, 2019

Change the Weather History Date:

Monday, September 23, 2019

  Actual Average Record
Temperature  
Mean Temperature 70 °F 64 °F  
Max Temperature 81 °F 76 °F 92 °F (2017)
Min Temperature 58 °F 51 °F 31 °F (2012)
Degree Days  
Heating Degree Days 0 4  
Month to date heating degree days 0 40  
Since 1 July heating degree days 0 45  
Cooling Degree Days 5 3  
Month to date cooling degree days 254 106  
Year to date cooling degree days 1398 1183  
Growing Degree Days 18 (Base 50)    
Moisture  
Dew Point 59 °F    
Average Humidity 76    
Maximum Humidity 100    
Minimum Humidity 51    
Precipitation  
Precipitation 0.00 in 0.10 in 2.00 in (1958)
Month to date precipitation 3.24 2.80  
Year to date precipitation 32.51 29.10  
Sea Level Pressure  
Sea Level Pressure 30.05 in    
Wind  
Wind Speed 4 mph (South)    
Max Wind Speed 13 mph    
Max Gust Speed 19 mph    
Visibility 5 miles    
Events Fog    
T = Trace of Precipitation, MM = Missing Value Source: NWS Daily Summary

Daily Weather History Graph

Daily Weather History Graph

Search for Another Location

Airport or City:

Astronomy

Sep. 23, 2019 Rise Set
Actual Time 7:08 AM CDT 7:15 PM CDT
Civil Twilight 6:41 AM CDT 7:42 PM CDT
Nautical Twilight 6:09 AM CDT 8:13 PM CDT
Astronomical Twilight 5:37 AM CDT 8:45 PM CDT
Moon 12:52 AM CDT 4:08 PM CDT
Length of Visible Light 13h 01m
Length of Day
12h 07m
Waning Crescent, 33% of the Moon is Illuminated
Sep 23
Waning Crescent
Sep 28
New
Oct 5
First Quarter
Oct 13
Full
Oct 21
Last Quarter

Hourly Weather History & Observations

Time (CDT) Temp. Heat Index Dew Point Humidity Pressure Visibility Wind Dir Wind Speed Gust Speed Precip Events Conditions
12:07 AM 57.9 °F - 55.9 °F 93% 30.04 in 1.8 mi Calm Calm - N/A   Clear
12:10 AM 57.0 °F - 55.9 °F 96% 30.04 in 0.8 mi Calm Calm - N/A   Mist
12:20 AM 59.0 °F - 57.9 °F 96% 30.04 in 1.5 mi SW 3.5 mph - N/A   Clear
12:22 AM 59.0 °F - 57.9 °F 96% 30.04 in 4.0 mi Calm Calm - N/A   Clear
12:29 AM 59.0 °F - 57.9 °F 96% 30.04 in 0.8 mi SSW 3.5 mph - N/A   Clear
12:41 AM 57.0 °F - 55.9 °F 96% 30.04 in 0.5 mi Calm Calm - N/A Fog Fog
12:50 AM 59.0 °F - 57.2 °F 94% 30.04 in 0.2 mi Calm Calm - N/A Fog Fog
12:53 AM 60.1 °F - 57.9 °F 93% 30.03 in 0.2 mi Calm Calm - N/A Fog Fog
1:02 AM 59.0 °F - 57.9 °F 96% 30.04 in 1.0 mi Calm Calm - N/A   Mist
1:06 AM 59.0 °F - 57.9 °F 96% 30.04 in 0.5 mi Calm Calm - N/A Fog Fog
1:53 AM 61.0 °F - 60.1 °F 97% 30.04 in 0.2 mi Calm Calm - N/A Fog Fog
2:53 AM 60.1 °F - 59.0 °F 96% 30.04 in 0.2 mi Calm Calm - N/A Fog Fog
3:53 AM 59.0 °F - 59.0 °F 100% 30.05 in 0.2 mi Calm Calm - N/A Fog Fog
4:53 AM 60.1 °F - 59.0 °F 96% 30.05 in 0.2 mi Calm Calm - N/A Fog Fog
5:53 AM 59.0 °F - 59.0 °F 100% 30.06 in 0.2 mi Calm Calm - N/A Fog Fog
6:53 AM 59.0 °F - 57.9 °F 96% 30.07 in 0.2 mi Calm Calm - N/A Fog Fog
7:53 AM 57.9 °F - 57.9 °F 100% 30.10 in 0.2 mi Calm Calm - N/A Fog Fog
8:53 AM 60.1 °F - 60.1 °F 100% 30.11 in 0.2 mi Variable 3.5 mph - N/A Fog Fog
9:01 AM 60.1 °F - 60.1 °F 100% 30.12 in 1.0 mi SSW 3.5 mph - N/A   Mist
9:11 AM 61.0 °F - 61.0 °F 100% 30.12 in 0.8 mi Calm Calm - N/A   Overcast
9:24 AM 61.0 °F - 61.0 °F 100% 30.12 in 2.0 mi Calm Calm - N/A   Overcast
9:32 AM 62.1 °F - 62.1 °F 100% 30.12 in 4.0 mi Calm Calm - N/A   Overcast
9:46 AM 63.0 °F - 61.0 °F 93% 30.12 in 8.0 mi Calm Calm - N/A   Scattered Clouds
9:53 AM 63.0 °F - 61.0 °F 93% 30.12 in 10.0 mi SSW 3.5 mph - N/A   Scattered Clouds
10:53 AM 70.0 °F - 61.0 °F 73% 30.12 in 10.0 mi South 6.9 mph - N/A   Clear
11:53 AM 75.0 °F - 62.1 °F 64% 30.10 in 10.0 mi SW 6.9 mph - N/A   Clear
12:53 PM 78.1 °F - 60.1 °F 54% 30.09 in 10.0 mi SW 8.1 mph - N/A   Clear
1:53 PM 78.1 °F - 59.0 °F 52% 30.06 in 10.0 mi South 9.2 mph - N/A   Clear
2:53 PM 79.0 °F - 60.1 °F 52% 30.04 in 10.0 mi SSE 8.1 mph 18.4 mph N/A   Clear
3:53 PM 80.1 °F 81.1 °F 61.0 °F 52% 30.03 in 10.0 mi South 9.2 mph - N/A   Clear
4:53 PM 80.1 °F 80.9 °F 60.1 °F 50% 30.01 in 10.0 mi South 10.4 mph - N/A   Clear
5:53 PM 78.1 °F - 61.0 °F 56% 30.01 in 10.0 mi South 8.1 mph - N/A   Clear
6:53 PM 73.9 °F - 62.1 °F 66% 30.00 in 10.0 mi South 5.8 mph - N/A   Clear
7:34 PM 69.1 °F - 62.1 °F 78% 30.01 in 10.0 mi South 5.8 mph - N/A   Partly Cloudy
7:53 PM 68.0 °F - 62.1 °F 81% 30.01 in 10.0 mi SSE 5.8 mph - N/A   Clear
8:53 PM 64.9 °F - 61.0 °F 87% 30.01 in 10.0 mi South 5.8 mph - N/A   Clear
9:53 PM 64.0 °F - 61.0 °F 90% 30.01 in 10.0 mi South 3.5 mph - N/A   Clear
10:53 PM 63.0 °F - 60.1 °F 90% 30.01 in 10.0 mi ESE 3.5 mph - N/A   Clear
11:53 PM 60.1 °F - 57.0 °F 90% 29.99 in 10.0 mi Calm Calm - N/A   Clear